"Time","Value","Approval","myLocation"
"2023-05-06 00:00",2.684,"Approved","OW471"
"2023-05-06 01:00",2.678,"Approved","OW471"
"2023-05-06 02:00",2.675,"Approved","OW471"
"2023-05-06 03:00",2.665,"Approved","OW471"
"2023-05-06 04:00",2.666,"Approved","OW471"
"2023-05-06 05:00",2.662,"Approved","OW471"
"2023-05-06 06:00",2.664,"Approved","OW471"
"2023-05-06 07:00",2.666,"Approved","OW471"
"2023-05-06 08:00",2.669,"Approved","OW471"
"2023-05-06 09:00",2.666,"Approved","OW471"
"2023-05-06 10:00",2.654,"Approved","OW471"
"2023-05-06 11:00",2.65,"Approved","OW471"
"2023-05-06 12:00",2.646,"Approved","OW471"
"2023-05-06 13:00",2.638,"Approved","OW471"
"2023-05-06 14:00",2.636,"Approved","OW471"
"2023-05-06 15:00",2.635,"Approved","OW471"
"2023-05-06 16:00",2.646,"Approved","OW471"
"2023-05-06 17:00",2.646,"Approved","OW471"
"2023-05-06 18:00",2.651,"Approved","OW471"
"2023-05-06 19:00",2.654,"Approved","OW471"
"2023-05-06 20:00",2.656,"Approved","OW471"
"2023-05-06 21:00",2.663,"Approved","OW471"
"2023-05-06 22:00",2.662,"Approved","OW471"
"2023-05-06 23:00",2.664,"Approved","OW471"
"2023-05-07 00:00",2.657,"Approved","OW471"
"2023-05-07 01:00",2.649,"Approved","OW471"
"2023-05-07 02:00",2.636,"Approved","OW471"
"2023-05-07 03:00",2.63,"Approved","OW471"
"2023-05-07 04:00",2.623,"Approved","OW471"
"2023-05-07 05:00",2.627,"Approved","OW471"
"2023-05-07 06:00",2.625,"Approved","OW471"
"2023-05-07 07:00",2.628,"Approved","OW471"
"2023-05-07 08:00",2.625,"Approved","OW471"
"2023-05-07 09:00",2.634,"Approved","OW471"
"2023-05-07 10:00",2.631,"Approved","OW471"
"2023-05-07 11:00",2.63,"Approved","OW471"
"2023-05-07 12:00",2.629,"Approved","OW471"
"2023-05-07 13:00",2.624,"Approved","OW471"
"2023-05-07 14:00",2.622,"Approved","OW471"
"2023-05-07 15:00",2.618,"Approved","OW471"
"2023-05-07 16:00",2.62,"Approved","OW471"
"2023-05-07 17:00",2.623,"Approved","OW471"
"2023-05-07 18:00",2.637,"Approved","OW471"
"2023-05-07 19:00",2.638,"Approved","OW471"
"2023-05-07 20:00",2.645,"Approved","OW471"
"2023-05-07 21:00",2.657,"Approved","OW471"
"2023-05-07 22:00",2.655,"Approved","OW471"
"2023-05-07 23:00",2.656,"Approved","OW471"
"2023-05-08 00:00",2.652,"Approved","OW471"
"2023-05-08 01:00",2.648,"Approved","OW471"
"2023-05-08 02:00",2.641,"Approved","OW471"
"2023-05-08 03:00",2.635,"Approved","OW471"
"2023-05-08 04:00",2.626,"Approved","OW471"
"2023-05-08 05:00",2.628,"Approved","OW471"
"2023-05-08 06:00",2.635,"Approved","OW471"
"2023-05-08 07:00",2.632,"Approved","OW471"
"2023-05-08 08:00",2.628,"Approved","OW471"
"2023-05-08 09:00",2.626,"Approved","OW471"
"2023-05-08 10:00",2.629,"Approved","OW471"
"2023-05-08 11:00",2.624,"Approved","OW471"
"2023-05-08 12:00",2.622,"Approved","OW471"
"2023-05-08 13:00",2.62,"Approved","OW471"
"2023-05-08 14:00",2.623,"Approved","OW471"
"2023-05-08 15:00",2.626,"Approved","OW471"
"2023-05-08 16:00",2.621,"Approved","OW471"
"2023-05-08 17:00",2.631,"Approved","OW471"
"2023-05-08 18:00",2.632,"Approved","OW471"
"2023-05-08 19:00",2.634,"Approved","OW471"
"2023-05-08 20:00",2.638,"Approved","OW471"
"2023-05-08 21:00",2.644,"Approved","OW471"
"2023-05-08 22:00",2.644,"Approved","OW471"
"2023-05-08 23:00",2.651,"Approved","OW471"
"2023-05-09 00:00",2.652,"Approved","OW471"
"2023-05-09 01:00",2.647,"Approved","OW471"
"2023-05-09 02:00",2.641,"Approved","OW471"
"2023-05-09 03:00",2.637,"Approved","OW471"
"2023-05-09 04:00",2.637,"Approved","OW471"
"2023-05-09 05:00",2.635,"Approved","OW471"
"2023-05-09 06:00",2.63,"Approved","OW471"
"2023-05-09 07:00",2.631,"Approved","OW471"
"2023-05-09 08:00",2.642,"Approved","OW471"
"2023-05-09 09:00",2.639,"Approved","OW471"
"2023-05-09 10:00",2.638,"Approved","OW471"
"2023-05-09 11:00",2.638,"Approved","OW471"
"2023-05-09 12:00",2.63,"Approved","OW471"
"2023-05-09 13:00",2.633,"Approved","OW471"
"2023-05-09 14:00",2.649,"Approved","OW471"
"2023-05-09 15:00",2.644,"Approved","OW471"
"2023-05-09 16:00",2.64,"Approved","OW471"
"2023-05-09 17:00",2.643,"Approved","OW471"
"2023-05-09 18:00",2.641,"Approved","OW471"
"2023-05-09 19:00",2.643,"Approved","OW471"
"2023-05-09 20:00",2.648,"Approved","OW471"
"2023-05-09 21:00",2.653,"Approved","OW471"
"2023-05-09 22:00",2.66,"Approved","OW471"
"2023-05-09 23:00",2.664,"Approved","OW471"
"2023-05-10 00:00",2.659,"Approved","OW471"
"2023-05-10 01:00",2.67,"Approved","OW471"
"2023-05-10 02:00",2.673,"Approved","OW471"
"2023-05-10 03:00",2.665,"Approved","OW471"
"2023-05-10 04:00",2.664,"Approved","OW471"
"2023-05-10 05:00",2.655,"Approved","OW471"
"2023-05-10 06:00",2.651,"Approved","OW471"
"2023-05-10 07:00",2.644,"Approved","OW471"
"2023-05-10 08:00",2.643,"Approved","OW471"
"2023-05-10 09:00",2.643,"Approved","OW471"
"2023-05-10 10:00",2.645,"Approved","OW471"
"2023-05-10 11:00",2.65,"Approved","OW471"
"2023-05-10 12:00",2.646,"Approved","OW471"
"2023-05-10 13:00",2.648,"Approved","OW471"
"2023-05-10 14:00",2.645,"Approved","OW471"
"2023-05-10 15:00",2.643,"Approved","OW471"
"2023-05-10 16:00",2.642,"Approved","OW471"
"2023-05-10 17:00",2.644,"Approved","OW471"
"2023-05-10 18:00",2.647,"Approved","OW471"
"2023-05-10 19:00",2.649,"Approved","OW471"
"2023-05-10 20:00",2.653,"Approved","OW471"
"2023-05-10 21:00",2.655,"Approved","OW471"
"2023-05-10 22:00",2.665,"Approved","OW471"
"2023-05-10 23:00",2.668,"Approved","OW471"
"2023-05-11 00:00",2.67,"Approved","OW471"
"2023-05-11 01:00",2.672,"Approved","OW471"
"2023-05-11 02:00",2.667,"Approved","OW471"
"2023-05-11 03:00",2.665,"Approved","OW471"
"2023-05-11 04:00",2.667,"Approved","OW471"
"2023-05-11 05:00",2.667,"Approved","OW471"
"2023-05-11 06:00",2.662,"Approved","OW471"
"2023-05-11 07:00",2.655,"Approved","OW471"
"2023-05-11 08:00",2.65,"Approved","OW471"
"2023-05-11 09:00",2.645,"Approved","OW471"
"2023-05-11 10:00",2.645,"Approved","OW471"
"2023-05-11 11:00",2.649,"Approved","OW471"
"2023-05-11 12:00",2.656,"Approved","OW471"
"2023-05-11 13:00",2.655,"Approved","OW471"
"2023-05-11 14:00",2.657,"Approved","OW471"
"2023-05-11 15:00",2.659,"Approved","OW471"
"2023-05-11 16:00",2.661,"Approved","OW471"
"2023-05-11 17:00",2.666,"Approved","OW471"
"2023-05-11 18:00",2.668,"Approved","OW471"
"2023-05-11 19:00",2.661,"Approved","OW471"
"2023-05-11 20:00",2.664,"Approved","OW471"
"2023-05-11 21:00",2.665,"Approved","OW471"
"2023-05-11 22:00",2.666,"Approved","OW471"
"2023-05-11 23:00",2.674,"Approved","OW471"
"2023-05-12 00:00",2.68,"Approved","OW471"
"2023-05-12 01:00",2.693,"Approved","OW471"
"2023-05-12 02:00",2.697,"Approved","OW471"
"2023-05-12 03:00",2.693,"Approved","OW471"
"2023-05-12 04:00",2.688,"Approved","OW471"
"2023-05-12 05:00",2.694,"Approved","OW471"
"2023-05-12 06:00",2.68,"Approved","OW471"
"2023-05-12 07:00",2.676,"Approved","OW471"
"2023-05-12 08:00",2.67,"Approved","OW471"
"2023-05-12 09:00",2.667,"Approved","OW471"
"2023-05-12 10:00",2.667,"Approved","OW471"
"2023-05-12 11:00",2.671,"Approved","OW471"
"2023-05-12 12:00",2.672,"Approved","OW471"
"2023-05-12 13:00",2.67,"Approved","OW471"
"2023-05-12 14:00",2.667,"Approved","OW471"
"2023-05-12 15:00",2.673,"Approved","OW471"
"2023-05-12 16:00",2.672,"Approved","OW471"
"2023-05-12 17:00",2.674,"Approved","OW471"
"2023-05-12 18:00",2.671,"Approved","OW471"
"2023-05-12 19:00",2.668,"Approved","OW471"
"2023-05-12 20:00",2.669,"Approved","OW471"
"2023-05-12 21:00",2.675,"Approved","OW471"
"2023-05-12 22:00",2.681,"Approved","OW471"
"2023-05-12 23:00",2.684,"Approved","OW471"
"2023-05-13 00:00",2.689,"Approved","OW471"
"2023-05-13 01:00",2.687,"Approved","OW471"
"2023-05-13 02:00",2.696,"Approved","OW471"
"2023-05-13 03:00",2.689,"Approved","OW471"
"2023-05-13 04:00",2.703,"Approved","OW471"
"2023-05-13 05:00",2.708,"Approved","OW471"
"2023-05-13 06:00",2.704,"Approved","OW471"
"2023-05-13 07:00",2.702,"Approved","OW471"
"2023-05-13 08:00",2.694,"Approved","OW471"
"2023-05-13 09:00",2.69,"Approved","OW471"
"2023-05-13 10:00",2.689,"Approved","OW471"
"2023-05-13 11:00",2.684,"Approved","OW471"
"2023-05-13 12:00",2.687,"Approved","OW471"
"2023-05-13 13:00",2.683,"Approved","OW471"
"2023-05-13 14:00",2.688,"Approved","OW471"
"2023-05-13 15:00",2.684,"Approved","OW471"
"2023-05-13 16:00",2.694,"Approved","OW471"
"2023-05-13 17:00",2.689,"Approved","OW471"
"2023-05-13 18:00",2.684,"Approved","OW471"
"2023-05-13 19:00",2.685,"Approved","OW471"
"2023-05-13 20:00",2.69,"Approved","OW471"
"2023-05-13 21:00",2.695,"Approved","OW471"
"2023-05-13 22:00",2.696,"Approved","OW471"
"2023-05-13 23:00",2.696,"Approved","OW471"
"2023-05-14 00:00",2.699,"Approved","OW471"
"2023-05-14 01:00",2.702,"Approved","OW471"
"2023-05-14 02:00",2.704,"Approved","OW471"
"2023-05-14 03:00",2.703,"Approved","OW471"
"2023-05-14 04:00",2.703,"Approved","OW471"
"2023-05-14 05:00",2.708,"Approved","OW471"
"2023-05-14 06:00",2.704,"Approved","OW471"
"2023-05-14 07:00",2.701,"Approved","OW471"
"2023-05-14 08:00",2.695,"Approved","OW471"
"2023-05-14 09:00",2.685,"Approved","OW471"
"2023-05-14 10:00",2.68,"Approved","OW471"
"2023-05-14 11:00",2.675,"Approved","OW471"
"2023-05-14 12:00",2.678,"Approved","OW471"
"2023-05-14 13:00",2.675,"Approved","OW471"
"2023-05-14 14:00",2.677,"Approved","OW471"
"2023-05-14 15:00",2.681,"Approved","OW471"
"2023-05-14 16:00",2.683,"Approved","OW471"
"2023-05-14 17:00",2.682,"Approved","OW471"
"2023-05-14 18:00",2.708,"Approved","OW471"
"2023-05-14 19:00",2.712,"Approved","OW471"
"2023-05-14 20:00",2.704,"Approved","OW471"
"2023-05-14 21:00",2.709,"Approved","OW471"
"2023-05-14 22:00",2.712,"Approved","OW471"
"2023-05-14 23:00",2.711,"Approved","OW471"
"2023-05-15 00:00",2.701,"Approved","OW471"
"2023-05-15 01:00",2.703,"Approved","OW471"
"2023-05-15 02:00",2.701,"Approved","OW471"
"2023-05-15 03:00",2.708,"Approved","OW471"
"2023-05-15 04:00",2.706,"Approved","OW471"
"2023-05-15 05:00",2.703,"Approved","OW471"
"2023-05-15 06:00",2.706,"Approved","OW471"
"2023-05-15 07:00",2.707,"Approved","OW471"
"2023-05-15 08:00",2.699,"Approved","OW471"
"2023-05-15 09:00",2.693,"Approved","OW471"
"2023-05-15 10:00",2.688,"Approved","OW471"
"2023-05-15 11:00",2.695,"Approved","OW471"
"2023-05-15 12:00",2.691,"Approved","OW471"
"2023-05-15 13:00",2.686,"Approved","OW471"
"2023-05-15 14:00",2.69,"Approved","OW471"
"2023-05-15 15:00",2.693,"Approved","OW471"
"2023-05-15 16:00",2.698,"Approved","OW471"
"2023-05-15 17:00",2.699,"Approved","OW471"
"2023-05-15 18:00",2.707,"Approved","OW471"
"2023-05-15 19:00",2.708,"Approved","OW471"
"2023-05-15 20:00",2.711,"Approved","OW471"
"2023-05-15 21:00",2.709,"Approved","OW471"
"2023-05-15 22:00",2.715,"Approved","OW471"
"2023-05-15 23:00",2.709,"Approved","OW471"
"2023-05-16 00:00",2.704,"Approved","OW471"
"2023-05-16 01:00",2.703,"Approved","OW471"
"2023-05-16 02:00",2.693,"Approved","OW471"
"2023-05-16 03:00",2.695,"Approved","OW471"
"2023-05-16 04:00",2.698,"Approved","OW471"
"2023-05-16 05:00",2.702,"Approved","OW471"
"2023-05-16 06:00",2.709,"Approved","OW471"
"2023-05-16 07:00",2.708,"Approved","OW471"
"2023-05-16 08:00",2.709,"Approved","OW471"
"2023-05-16 09:00",2.711,"Approved","OW471"
"2023-05-16 10:00",2.716,"Approved","OW471"
"2023-05-16 11:00",2.709,"Approved","OW471"
"2023-05-16 12:00",2.713,"Approved","OW471"
"2023-05-16 13:00",2.703,"Approved","OW471"
"2023-05-16 14:00",2.708,"Approved","OW471"
"2023-05-16 15:00",2.71,"Approved","OW471"
"2023-05-16 16:00",2.711,"Approved","OW471"
"2023-05-16 17:00",2.724,"Approved","OW471"
"2023-05-16 18:00",2.727,"Approved","OW471"
"2023-05-16 19:00",2.732,"Approved","OW471"
"2023-05-16 20:00",2.728,"Approved","OW471"
"2023-05-16 21:00",2.726,"Approved","OW471"
"2023-05-16 22:00",2.716,"Approved","OW471"
"2023-05-16 23:00",2.71,"Approved","OW471"
"2023-05-17 00:00",2.711,"Approved","OW471"
"2023-05-17 01:00",2.706,"Approved","OW471"
"2023-05-17 02:00",2.706,"Approved","OW471"
"2023-05-17 03:00",2.704,"Approved","OW471"
"2023-05-17 04:00",2.707,"Approved","OW471"
"2023-05-17 05:00",2.716,"Approved","OW471"
"2023-05-17 06:00",2.723,"Approved","OW471"
"2023-05-17 07:00",2.718,"Approved","OW471"
"2023-05-17 08:00",2.718,"Approved","OW471"
"2023-05-17 09:00",2.715,"Approved","OW471"
"2023-05-17 10:00",2.707,"Approved","OW471"
"2023-05-17 11:00",2.698,"Approved","OW471"
"2023-05-17 12:00",2.707,"Approved","OW471"
"2023-05-17 13:00",2.709,"Approved","OW471"
"2023-05-17 14:00",2.712,"Approved","OW471"
"2023-05-17 15:00",2.712,"Approved","OW471"
"2023-05-17 16:00",2.716,"Approved","OW471"
"2023-05-17 17:00",2.723,"Approved","OW471"
"2023-05-17 18:00",2.724,"Approved","OW471"
"2023-05-17 19:00",2.735,"Approved","OW471"
"2023-05-17 20:00",2.735,"Approved","OW471"
"2023-05-17 21:00",2.727,"Approved","OW471"
"2023-05-17 22:00",2.733,"Approved","OW471"
"2023-05-17 23:00",2.727,"Approved","OW471"
"2023-05-18 00:00",2.722,"Approved","OW471"
"2023-05-18 01:00",2.715,"Approved","OW471"
"2023-05-18 02:00",2.715,"Approved","OW471"
"2023-05-18 03:00",2.712,"Approved","OW471"
"2023-05-18 04:00",2.711,"Approved","OW471"
"2023-05-18 05:00",2.71,"Approved","OW471"
"2023-05-18 06:00",2.722,"Approved","OW471"
"2023-05-18 07:00",2.732,"Approved","OW471"
"2023-05-18 08:00",2.737,"Approved","OW471"
"2023-05-18 09:00",2.732,"Approved","OW471"
"2023-05-18 10:00",2.725,"Approved","OW471"
"2023-05-18 11:00",2.727,"Approved","OW471"
"2023-05-18 12:00",2.721,"Approved","OW471"
"2023-05-18 13:00",2.716,"Approved","OW471"
"2023-05-18 14:00",2.722,"Approved","OW471"
"2023-05-18 15:00",2.725,"Approved","OW471"
"2023-05-18 16:00",2.73,"Approved","OW471"
"2023-05-18 17:00",2.734,"Approved","OW471"
"2023-05-18 18:00",2.742,"Approved","OW471"
"2023-05-18 19:00",2.746,"Approved","OW471"
"2023-05-18 20:00",2.753,"Approved","OW471"
"2023-05-18 21:00",2.761,"Approved","OW471"
"2023-05-18 22:00",2.76,"Approved","OW471"
"2023-05-18 23:00",2.748,"Approved","OW471"
"2023-05-19 00:00",2.744,"Approved","OW471"
"2023-05-19 01:00",2.728,"Approved","OW471"
"2023-05-19 02:00",2.73,"Approved","OW471"
"2023-05-19 03:00",2.729,"Approved","OW471"
"2023-05-19 04:00",2.732,"Approved","OW471"
"2023-05-19 05:00",2.745,"Approved","OW471"
"2023-05-19 06:00",2.745,"Approved","OW471"
"2023-05-19 07:00",2.745,"Approved","OW471"
"2023-05-19 08:00",2.745,"Approved","OW471"
"2023-05-19 09:00",2.744,"Approved","OW471"
"2023-05-19 10:00",2.736,"Approved","OW471"
"2023-05-19 11:00",2.732,"Approved","OW471"
"2023-05-19 12:00",2.736,"Approved","OW471"
"2023-05-19 13:00",2.732,"Approved","OW471"
"2023-05-19 14:00",2.735,"Approved","OW471"
"2023-05-19 15:00",2.744,"Approved","OW471"
"2023-05-19 16:00",2.744,"Approved","OW471"
"2023-05-19 17:00",2.748,"Approved","OW471"
"2023-05-19 18:00",2.758,"Approved","OW471"
"2023-05-19 19:00",2.764,"Approved","OW471"
"2023-05-19 20:00",2.776,"Approved","OW471"
"2023-05-19 21:00",2.781,"Approved","OW471"
"2023-05-19 22:00",2.78,"Approved","OW471"
"2023-05-19 23:00",2.774,"Approved","OW471"
"2023-05-20 00:00",2.765,"Approved","OW471"
"2023-05-20 01:00",2.761,"Approved","OW471"
"2023-05-20 02:00",2.752,"Approved","OW471"
"2023-05-20 03:00",2.749,"Approved","OW471"
"2023-05-20 04:00",2.739,"Approved","OW471"
"2023-05-20 05:00",2.738,"Approved","OW471"
"2023-05-20 06:00",2.741,"Approved","OW471"
"2023-05-20 07:00",2.748,"Approved","OW471"
"2023-05-20 08:00",2.747,"Approved","OW471"
"2023-05-20 09:00",2.75,"Approved","OW471"
"2023-05-20 10:00",2.749,"Approved","OW471"
"2023-05-20 11:00",2.754,"Approved","OW471"
"2023-05-20 12:00",2.748,"Approved","OW471"
"2023-05-20 13:00",2.758,"Approved","OW471"
"2023-05-20 14:00",2.76,"Approved","OW471"
"2023-05-20 15:00",2.757,"Approved","OW471"
"2023-05-20 16:00",2.754,"Approved","OW471"
"2023-05-20 17:00",2.762,"Approved","OW471"
"2023-05-20 18:00",2.768,"Approved","OW471"
"2023-05-20 19:00",2.769,"Approved","OW471"
"2023-05-20 20:00",2.777,"Approved","OW471"
"2023-05-20 21:00",2.78,"Approved","OW471"
"2023-05-20 22:00",2.778,"Approved","OW471"
"2023-05-20 23:00",2.782,"Approved","OW471"
"2023-05-21 00:00",2.783,"Approved","OW471"
"2023-05-21 01:00",2.775,"Approved","OW471"
"2023-05-21 02:00",2.769,"Approved","OW471"
"2023-05-21 03:00",2.76,"Approved","OW471"
"2023-05-21 04:00",2.755,"Approved","OW471"
"2023-05-21 05:00",2.752,"Approved","OW471"
"2023-05-21 06:00",2.751,"Approved","OW471"
"2023-05-21 07:00",2.752,"Approved","OW471"
"2023-05-21 08:00",2.762,"Approved","OW471"
"2023-05-21 09:00",2.764,"Approved","OW471"
"2023-05-21 10:00",2.765,"Approved","OW471"
"2023-05-21 11:00",2.765,"Approved","OW471"
"2023-05-21 12:00",2.765,"Approved","OW471"
"2023-05-21 13:00",2.763,"Approved","OW471"
"2023-05-21 14:00",2.764,"Approved","OW471"
"2023-05-21 15:00",2.76,"Approved","OW471"
"2023-05-21 16:00",2.763,"Approved","OW471"
"2023-05-21 17:00",2.768,"Approved","OW471"
"2023-05-21 18:00",2.771,"Approved","OW471"
"2023-05-21 19:00",2.776,"Approved","OW471"
"2023-05-21 20:00",2.776,"Approved","OW471"
"2023-05-21 21:00",2.779,"Approved","OW471"
"2023-05-21 22:00",2.776,"Approved","OW471"
"2023-05-21 23:00",2.784,"Approved","OW471"
"2023-05-22 00:00",2.79,"Approved","OW471"
"2023-05-22 01:00",2.788,"Approved","OW471"
"2023-05-22 02:00",2.78,"Approved","OW471"
"2023-05-22 03:00",2.779,"Approved","OW471"
"2023-05-22 04:00",2.78,"Approved","OW471"
"2023-05-22 05:00",2.776,"Approved","OW471"
"2023-05-22 06:00",2.77,"Approved","OW471"
"2023-05-22 07:00",2.77,"Approved","OW471"
"2023-05-22 08:00",2.771,"Approved","OW471"
"2023-05-22 09:00",2.766,"Approved","OW471"
"2023-05-22 10:00",2.771,"Approved","OW471"
"2023-05-22 11:00",2.762,"Approved","OW471"
"2023-05-22 12:00",2.757,"Approved","OW471"
"2023-05-22 13:00",2.757,"Approved","OW471"
"2023-05-22 14:00",2.757,"Approved","OW471"
"2023-05-22 15:00",2.762,"Approved","OW471"
"2023-05-22 16:00",2.76,"Approved","OW471"
"2023-05-22 17:00",2.766,"Approved","OW471"
"2023-05-22 18:00",2.77,"Approved","OW471"
"2023-05-22 19:00",2.78,"Approved","OW471"
"2023-05-22 20:00",2.803,"Approved","OW471"
"2023-05-22 21:00",2.805,"Approved","OW471"
"2023-05-22 22:00",2.807,"Approved","OW471"
"2023-05-22 23:00",2.801,"Approved","OW471"
"2023-05-23 00:00",2.799,"Approved","OW471"
"2023-05-23 01:00",2.798,"Approved","OW471"
"2023-05-23 02:00",2.8,"Approved","OW471"
"2023-05-23 03:00",2.795,"Approved","OW471"
"2023-05-23 04:00",2.788,"Approved","OW471"
"2023-05-23 05:00",2.773,"Approved","OW471"
"2023-05-23 06:00",2.774,"Approved","OW471"
"2023-05-23 07:00",2.772,"Approved","OW471"
"2023-05-23 08:00",2.773,"Approved","OW471"
"2023-05-23 09:00",2.784,"Approved","OW471"
"2023-05-23 10:00",2.782,"Approved","OW471"
"2023-05-23 11:00",2.78,"Approved","OW471"
"2023-05-23 12:00",2.782,"Approved","OW471"
"2023-05-23 13:00",2.776,"Approved","OW471"
"2023-05-23 14:00",2.778,"Approved","OW471"
"2023-05-23 15:00",2.779,"Approved","OW471"
"2023-05-23 16:00",2.775,"Approved","OW471"
"2023-05-23 17:00",2.773,"Approved","OW471"
"2023-05-23 18:00",2.778,"Approved","OW471"
"2023-05-23 19:00",2.78,"Approved","OW471"
"2023-05-23 20:00",2.785,"Approved","OW471"
"2023-05-23 21:00",2.797,"Approved","OW471"
"2023-05-23 22:00",2.803,"Approved","OW471"
"2023-05-23 23:00",2.807,"Approved","OW471"
"2023-05-24 00:00",2.818,"Approved","OW471"
"2023-05-24 01:00",2.815,"Approved","OW471"
"2023-05-24 02:00",2.811,"Approved","OW471"
"2023-05-24 03:00",2.808,"Approved","OW471"
"2023-05-24 04:00",2.805,"Approved","OW471"
"2023-05-24 05:00",2.797,"Approved","OW471"
"2023-05-24 06:00",2.799,"Approved","OW471"
"2023-05-24 07:00",2.791,"Approved","OW471"
"2023-05-24 08:00",2.798,"Approved","OW471"
"2023-05-24 09:00",2.797,"Approved","OW471"
"2023-05-24 10:00",2.794,"Approved","OW471"
"2023-05-24 11:00",2.794,"Approved","OW471"
"2023-05-24 12:00",2.788,"Approved","OW471"
"2023-05-24 13:00",2.785,"Approved","OW471"
"2023-05-24 14:00",2.787,"Approved","OW471"
"2023-05-24 15:00",2.788,"Approved","OW471"
"2023-05-24 16:00",2.783,"Approved","OW471"
"2023-05-24 17:00",2.783,"Approved","OW471"
"2023-05-24 18:00",2.784,"Approved","OW471"
"2023-05-24 19:00",2.79,"Approved","OW471"
"2023-05-24 20:00",2.794,"Approved","OW471"
"2023-05-24 21:00",2.804,"Approved","OW471"
"2023-05-24 22:00",2.812,"Approved","OW471"
"2023-05-24 23:00",2.814,"Approved","OW471"
"2023-05-25 00:00",2.815,"Approved","OW471"
"2023-05-25 01:00",2.813,"Approved","OW471"
"2023-05-25 02:00",2.816,"Approved","OW471"
"2023-05-25 03:00",2.814,"Approved","OW471"
"2023-05-25 04:00",2.815,"Approved","OW471"
"2023-05-25 05:00",2.807,"Approved","OW471"
"2023-05-25 06:00",2.805,"Approved","OW471"
"2023-05-25 07:00",2.801,"Approved","OW471"
"2023-05-25 08:00",2.797,"Approved","OW471"
"2023-05-25 09:00",2.793,"Approved","OW471"
"2023-05-25 10:00",2.79,"Approved","OW471"
"2023-05-25 11:00",2.802,"Approved","OW471"
"2023-05-25 12:00",2.801,"Approved","OW471"
"2023-05-25 13:00",2.794,"Approved","OW471"
"2023-05-25 14:00",2.793,"Approved","OW471"
"2023-05-25 15:00",2.795,"Approved","OW471"
"2023-05-25 16:00",2.788,"Approved","OW471"
"2023-05-25 17:00",2.798,"Approved","OW471"
"2023-05-25 18:00",2.794,"Approved","OW471"
"2023-05-25 19:00",2.804,"Approved","OW471"
"2023-05-25 20:00",2.818,"Approved","OW471"
"2023-05-25 21:00",2.819,"Approved","OW471"
"2023-05-25 22:00",2.82,"Approved","OW471"
"2023-05-25 23:00",2.816,"Approved","OW471"
"2023-05-26 00:00",2.823,"Approved","OW471"
"2023-05-26 01:00",2.83,"Approved","OW471"
"2023-05-26 02:00",2.832,"Approved","OW471"
"2023-05-26 03:00",2.824,"Approved","OW471"
"2023-05-26 04:00",2.827,"Approved","OW471"
"2023-05-26 05:00",2.818,"Approved","OW471"
"2023-05-26 06:00",2.817,"Approved","OW471"
"2023-05-26 07:00",2.806,"Approved","OW471"
"2023-05-26 08:00",2.811,"Approved","OW471"
"2023-05-26 09:00",2.808,"Approved","OW471"
"2023-05-26 10:00",2.806,"Approved","OW471"
"2023-05-26 11:00",2.802,"Approved","OW471"
"2023-05-26 12:00",2.805,"Approved","OW471"
"2023-05-26 13:00",2.808,"Approved","OW471"
"2023-05-26 14:00",2.81,"Approved","OW471"
"2023-05-26 15:00",2.809,"Approved","OW471"
"2023-05-26 16:00",2.813,"Approved","OW471"
"2023-05-26 17:00",2.82,"Approved","OW471"
"2023-05-26 18:00",2.817,"Approved","OW471"
"2023-05-26 19:00",2.817,"Approved","OW471"
"2023-05-26 20:00",2.819,"Approved","OW471"
"2023-05-26 21:00",2.817,"Approved","OW471"
"2023-05-26 22:00",2.822,"Approved","OW471"
"2023-05-26 23:00",2.822,"Approved","OW471"
"2023-05-27 00:00",2.823,"Approved","OW471"
"2023-05-27 01:00",2.832,"Approved","OW471"
"2023-05-27 02:00",2.83,"Approved","OW471"
"2023-05-27 03:00",2.828,"Approved","OW471"
"2023-05-27 04:00",2.826,"Approved","OW471"
"2023-05-27 05:00",2.824,"Approved","OW471"
"2023-05-27 06:00",2.823,"Approved","OW471"
"2023-05-27 07:00",2.818,"Approved","OW471"
"2023-05-27 08:00",2.824,"Approved","OW471"
"2023-05-27 09:00",2.823,"Approved","OW471"
"2023-05-27 10:00",2.822,"Approved","OW471"
"2023-05-27 11:00",2.819,"Approved","OW471"
"2023-05-27 12:00",2.819,"Approved","OW471"
"2023-05-27 13:00",2.822,"Approved","OW471"
"2023-05-27 14:00",2.821,"Approved","OW471"
"2023-05-27 15:00",2.826,"Approved","OW471"
"2023-05-27 16:00",2.819,"Approved","OW471"
"2023-05-27 17:00",2.824,"Approved","OW471"
"2023-05-27 18:00",2.83,"Approved","OW471"
"2023-05-27 19:00",2.832,"Approved","OW471"
"2023-05-27 20:00",2.837,"Approved","OW471"
"2023-05-27 21:00",2.838,"Approved","OW471"
"2023-05-27 22:00",2.832,"Approved","OW471"
"2023-05-27 23:00",2.831,"Approved","OW471"
"2023-05-28 00:00",2.833,"Approved","OW471"
"2023-05-28 01:00",2.831,"Approved","OW471"
"2023-05-28 02:00",2.832,"Approved","OW471"
"2023-05-28 03:00",2.837,"Approved","OW471"
"2023-05-28 04:00",2.838,"Approved","OW471"